COSMOS 2374 (GLONASS) 1 26566U 00063C 08286.63214237 .00000052 00000-0 10000-3 0 3429 2 26566 064.5259 172.2186 0051498 215.5486 349.4832 02.13100326 62237 COSMOS 2382 (GLONASS) 1 26987U 01053A 08285.34239707 +.00000024 +00000-0 +10000-3 0 09630 2 26987 063.8107 289.0650 0007332 187.3634 330.1431 02.13102721053390 COSMOS 2381 (GLONASS) 1 26988U 01053B 08286.39256098 .00000020 00000-0 10000-3 0 9703 2 26988 063.8139 289.0311 0027982 210.8574 125.6505 02.13103525 53424 COSMOS 2394 (GLONASS) 1 27617U 02060A 08285.66857755 .00000041 00000-0 10000-3 0 6225 2 27617 064.7272 172.6427 0001325 173.0371 220.8306 02.13102461 45151 COSMOS 2396 (GLONASS) 1 27618U 02060B 08285.24244258 +.00000036 +00000-0 +10000-3 0 06424 2 27618 064.7300 172.6294 0016847 157.1362 355.6186 02.13101439045128 COSMOS 2395 (GLONASS) 1 27619U 02060C 08286.29158872 .00000048 00000-0 10000-3 0 6509 2 27619 064.7399 172.6582 0005178 292.0860 263.7683 02.13102499 45144 COSMOS 2404 (GLONASS) 1 28112U 03056A 08286.33993956 .00000020 00000-0 10000-3 0 4091 2 28112 064.1258 291.4498 0041239 102.9408 056.1025 02.13104619 37660 COSMOS 2402 (GLONASS) 1 28113U 03056B 08285.61911037 +.00000023 +00000-0 +10000-3 0 03612 2 28113 064.1365 291.4831 0038959 096.3188 054.7390 02.13104559037658 COSMOS 2403 (GLONASS) 1 28114U 03056C 08285.12871006 +.00000024 +00000-0 +10000-3 0 03543 2 28114 064.1417 291.5172 0035437 082.2200 323.9026 02.13104483037645 COSMOS 2413 (GLONASS) 1 28508U 04053A 08286.41873226 .00000020 00000-0 10000-3 0 696 2 28508 064.0176 290.3131 0011328 169.8781 276.9515 02.13103772 29533 COSMOS 2411 (GLONASS) 1 28509U 04053B 08285.44085266 +.00000023 +00000-0 +10000-3 0 00680 2 28509 064.0126 290.3197 0006711 181.1600 321.9107 02.13102793029516 COSMOS 2412 (GLONASS) 1 28510U 04053C 08286.79536435 .00000019 00000-0 10000-3 0 786 2 28510 064.0237 290.3208 0004651 203.5643 213.7435 02.13102991 29546 COSMOS 2419 (GLONASS) 1 28915U 05050A 08286.30309181 .00000049 00000-0 10000-3 0 8002 2 28915 064.8625 171.9801 0008175 338.9512 133.6307 02.13102002 21789 COSMOS 2418 (GLONASS) 1 28916U 05050B 08286.41298023 .00000051 00000-0 10000-3 0 7908 2 28916 064.8813 172.0033 0019384 337.1065 172.1702 02.13103587 21782 COSMOS 2417 (GLONASS) 1 28917U 05050C 08285.67025027 +.00000042 +00000-0 +00000-0 0 07757 2 28917 064.8642 172.0204 0017192 140.3392 253.9689 02.13102726021769 COSMOS 2425 (GLONASS) 1 29670U 06062A 08286.62027251 -.00000012 00000-0 10000-3 0 5182 2 29670 065.2288 051.3610 0022121 354.7063 349.0158 02.13103314 13988 COSMOS 2426 (GLONASS) 1 29671U 06062B 08286.42603366 -.00000012 00000-0 10000-3 0 5267 2 29671 065.2452 051.3909 0020691 166.9690 253.5709 02.13103705 13998 COSMOS 2424 (GLONASS) 1 29672U 06062C 08286.56386707 -.00000012 00000-0 10000-3 0 5406 2 29672 065.2301 051.3661 0018343 165.1514 181.2821 02.13103777 13984